STARLINK-3822, 52287

Orbit data source: Space-Track

STARLINK-3822, 52287 is a payload satellite owned by SpaceX/Seattle (US) in LEO that was launched on Thu, 21 Apr 2022 UTC via an FALCON 9 launch vehicle from the Air Force Eastern Test Range (AFETR). Payload-class satellites include a variety of spacecraft equipped with specific instruments for various scientific and technological missions. These include communications satellites like Starlink; space stations such as the ISS; scientific satellites like the Hubble; Earth observation satellites from companies like Planet Labs, Umbra, and HawkEye 360; GPS; miniature CubeSats for education and research; and military/defense satellites.

Loading next visibility...
Identifier
52287, 2022-041AC
Orbit
LEO
Country
Flag of USUS
Related business
Manufacturer
SpaceX/Seattle
Mission
Operational Commercial Communications
Bus & Motor
STARLINK, Unknown motor
Mass
297 kg wet, ~275 kg dry
Launch date (UTC)
2022-04-21 (4 years ago)
Launch vehicle
FALCON 9
Launch site
Air Force Eastern Test Range (AFETR)
Object type
Payload
Rocket body
Debris
Shape & HBR
Box + 1 Pan, 10.1 m
Radar Cross Section
11.087 m², Large (>1 m²)

Expand to show TLE details & history
Last TLE update: 1 day ago

TLE from 1 day ago
0 STARLINK-3822
1 52287U 22041AC  26129.46143150  .00000964  00000-0  78650-4 0  9996
2 52287  53.2171 196.3042 0001274  82.0609 278.0528 15.08853215223545
Epoch: 2026-05-09T11:04Z
TLE epoch observation values (Epoch: 2026-05-09T11:04:27.681Z)
Latitude
-0.00001°
Longitude
162.91033°
Altitude
540.477 km
Speed
7.593 km/s
True Right ascension
13h 05m 13s
True Declination
0° 00' 00"
Sunlit
Object was in full shadow at epoch
Visualization orbit readout
Latitude
Unknown
Longitude
Unknown
Altitude
Unknown
Speed
Unknown
Apparent Right ascension
Unknown
Apparent Declination
Unknown
Sunlit
N/A
Visualization observer readout
Local Sidereal Time
19:47:36
Azimuth
Unknown
Elevation
Unknown
Doppler factor
Unknown
Orbital elements
Apogee altitude
540.829 km
Perigee altitude
539.067 km
Semi-major axis
6,918.085 km
Eccentricity
0.00013
Inclination
53.2171°
RAAN
196.3042°
Arg. of periapsis
82.0609°
True anomaly
278.03834°
Mean anomaly
278.0528°
Eccentric anomaly
278.04557°
Mean motion
3.77194 °/min
Orbital period
95.44 mins
BSTAR
0.00007865
Loading maneuver chart data...
Computing Atmospheric mass density...
Loading historical data...
Loading historical data...
Loading historical data...
Loading historical data...
Loading historical data...
Loading historical data...
Loading historical data...

Documentation

Showing up to 5 results
|